Date,TemperatureHighF,TemperatureAvgF,TemperatureLowF,DewpointHighF,DewpointAvgF,DewpointLowF,HumidityHigh,HumidityAvg,HumidityLow,PressureMaxIn,PressureMinIn,WindSpeedMaxMPH,WindSpeedAvgMPH,GustSpeedMaxMPH,PrecipitationSumIn
2013-1-1,35.8,30.3,23.5,34.5,27.9,19.8,96,91,84,30.22,30.01,12,3,12,0.00
2013-1-2,31.4,23.9,17.4,20.1,17.6,15.0,91,78,58,30.29,30.19,5,1,5,0.00
2013-1-3,41.4,29.2,20.5,31.0,24.0,16.4,92,81,61,30.41,30.23,8,1,8,0.00
2013-1-4,43.8,33.8,26.5,34.7,29.2,24.5,94,84,63,30.45,30.34,12,2,12,0.00
2013-1-5,43.7,36.7,28.8,36.3,31.5,25.4,90,81,71,30.36,30.18,13,3,13,0.00
2013-1-6,41.2,35.4,26.4,35.9,30.3,22.5,94,82,64,30.38,30.12,17,5,17,0.00
2013-1-7,45.8,33.7,22.9,31.1,26.3,20.1,92,75,55,30.45,30.19,9,2,9,0.00
2013-1-8,56.6,43.0,31.6,37.7,32.2,25.4,81,67,45,30.25,30.15,15,2,15,0.00
2013-1-9,56.6,50.3,45.1,48.5,42.6,37.3,90,75,64,30.38,30.19,6,1,6,0.02
2013-1-10,65.6,55.3,45.2,62.3,52.9,38.3,97,92,67,30.38,29.82,28,7,28,0.93
2013-1-11,63.0,57.4,53.1,57.7,52.4,49.3,95,84,65,29.95,29.81,21,7,21,0.01
2013-1-12,68.8,62.1,47.5,65.8,60.5,45.6,98,95,86,29.91,29.63,17,4,17,1.05
2013-1-13,47.1,32.9,24.8,45.3,30.9,20.9,96,92,85,30.30,29.71,20,3,20,1.19
2013-1-14,28.2,24.4,21.0,22.2,19.7,16.4,87,82,77,30.43,30.29,0,0,0,0.00
2013-1-15,31.2,26.7,21.8,26.2,23.2,19.6,93,87,74,30.33,30.07,9,0,9,0.00
2013-1-16,34.5,30.9,28.9,28.5,26.7,25.4,90,84,73,30.15,30.05,6,1,6,0.02
2013-1-17,45.5,34.3,26.1,36.6,28.3,23.0,91,79,68,30.47,30.09,18,3,18,0.02
2013-1-18,47.9,36.0,23.9,33.2,27.4,21.3,92,72,54,30.53,30.25,12,2,12,0.01
2013-1-19,40.6,39.2,37.8,30.9,29.1,27.7,72,67,62,30.26,30.22,13,6,13,0.00
2013-1-20,44.8,37.8,28.6,30.3,20.7,15.4,70,51,32,30.27,30.18,9,2,9,0.00
2013-1-21,36.7,28.5,23.2,19.5,14.7,6.7,71,57,42,30.34,30.20,16,5,16,0.00
2013-1-22,25.5,21.9,17.9,9.9,3.2,-2.2,66,45,32,30.46,30.34,8,1,8,0.00
2013-1-23,47.0,32.3,19.5,32.5,21.5,8.8,85,65,49,30.36,30.13,15,3,15,0.00
2013-1-24,36.3,29.3,22.1,28.4,15.4,10.0,75,56,43,30.53,30.22,17,4,17,0.00
2013-1-25,42.0,32.5,27.5,30.7,24.8,11.2,90,74,43,30.23,30.08,12,2,12,0.01
2013-1-26,45.8,35.7,28.4,29.6,26.0,21.1,91,70,46,30.35,30.22,6,1,6,0.00
2013-1-27,53.2,40.4,30.1,47.9,36.2,21.7,94,85,70,30.29,30.05,12,4,12,0.15
2013-1-28,63.5,57.7,53.4,59.9,54.5,47.9,95,89,80,30.06,29.96,15,5,15,0.10
2013-1-29,70.8,64.2,53.5,62.7,59.0,51.8,94,84,71,29.97,29.37,31,9,31,0.70
2013-1-30,55.6,45.6,32.9,52.8,41.0,23.5,97,84,68,29.91,29.38,33,12,33,0.72
2013-1-31,42.9,32.8,20.8,32.3,24.2,9.3,92,70,59,30.32,29.92,25,12,25,0.02
2013-2-1,28.6,21.3,13.4,17.7,10.0,4.1,72,62,48,30.52,30.30,18,4,18,0.00
2013-2-2,43.6,34.0,25.6,32.2,25.5,17.3,83,71,61,30.29,30.07,18,5,18,0.00
2013-2-3,45.1,37.0,30.6,33.2,27.5,22.3,87,70,45,30.14,29.99,20,5,20,0.00
2013-2-4,47.2,39.6,31.1,39.7,33.2,23.8,93,78,54,30.06,29.84,20,6,20,0.05
2013-2-5,55.6,41.9,30.2,44.6,37.0,27.9,95,83,59,30.06,29.89,16,3,16,0.00
2013-2-6,52.7,42.5,31.0,38.4,32.8,28.3,94,70,46,30.23,30.04,8,2,8,0.00
2013-2-7,64.8,52.9,40.6,53.9,44.3,31.7,95,73,55,30.05,29.83,16,4,16,0.28
2013-2-8,49.5,39.4,34.4,47.5,34.2,28.5,93,81,71,30.33,29.90,18,5,18,0.00
2013-2-9,47.4,39.3,31.9,35.1,31.1,27.3,84,73,59,30.35,30.01,10,2,10,0.00
2013-2-10,57.0,52.0,44.3,53.7,46.1,34.9,94,81,60,30.01,29.66,20,8,20,0.45
2013-2-11,54.8,46.6,38.4,50.6,34.4,29.5,90,63,46,30.11,29.83,22,8,22,0.00
2013-2-12,49.1,42.3,31.3,35.8,32.4,28.8,94,69,50,30.12,29.83,6,1,6,0.02
2013-2-13,47.2,40.1,35.6,41.1,36.8,33.6,95,88,73,29.92,29.80,16,4,16,0.27
2013-2-14,59.8,46.9,37.8,45.5,39.7,33.9,93,77,55,30.00,29.88,17,7,17,0.00
2013-2-15,46.3,39.7,27.7,35.4,27.1,15.7,82,62,32,30.19,30.00,17,3,17,0.00
2013-2-16,39.1,30.3,25.1,21.1,15.5,6.7,79,56,30,30.22,30.15,15,3,15,0.00
2013-2-17,50.0,36.8,24.8,28.8,23.7,14.0,84,61,38,30.22,30.01,10,3,10,0.00
2013-2-18,58.6,48.4,40.4,48.2,40.4,26.8,94,75,53,30.00,29.62,33,9,33,0.70
2013-2-19,46.7,38.5,30.1,40.3,21.9,11.2,89,54,27,30.26,29.84,25,11,25,0.00
2013-2-20,32.8,28.0,24.6,19.6,15.6,11.9,74,59,51,30.36,30.24,12,2,12,0.00
2013-2-21,34.3,30.4,25.9,32.9,25.1,18.8,95,81,64,30.25,29.79,12,2,12,0.42
2013-2-22,44.4,37.3,32.0,39.5,34.2,27.0,96,89,77,30.05,29.79,20,7,20,0.03
2013-2-23,45.9,34.6,26.5,29.6,26.1,22.8,87,72,49,30.05,29.95,12,2,12,0.00
2013-2-24,52.0,38.7,26.7,30.8,26.8,22.5,87,64,42,30.11,29.97,9,1,9,0.00
2013-2-25,56.9,46.3,36.2,40.1,30.6,27.1,88,56,35,29.99,29.38,12,4,12,0.17
2013-2-26,49.4,43.4,38.6,48.3,40.5,34.2,96,89,82,29.66,29.28,22,10,22,0.50
2013-2-27,39.8,37.6,33.8,34.7,32.4,29.8,91,82,69,29.88,29.66,22,11,22,0.01
2013-2-28,38.9,35.5,33.4,32.4,30.2,27.4,91,81,74,30.07,29.88,15,6,15,0.00
2013-3-1,36.6,33.4,30.9,34.4,31.3,28.3,95,92,87,30.11,30.02,12,4,12,0.09
2013-3-2,33.3,31.1,30.1,28.5,25.3,18.0,91,79,59,30.19,30.08,16,6,16,0.01
2013-3-3,42.6,33.4,22.9,28.5,22.9,18.5,86,66,44,30.19,30.05,12,3,12,0.01
2013-3-4,58.6,46.3,36.1,42.2,31.8,25.3,84,58,39,30.06,29.74,18,5,18,0.06
2013-3-5,47.1,39.8,33.8,43.9,34.4,21.0,95,82,57,30.06,29.70,31,10,31,0.16
2013-3-6,45.4,35.8,28.5,31.7,26.3,23.5,83,69,54,30.31,30.06,26,8,26,0.00
2013-3-7,47.7,36.0,24.2,32.5,27.7,21.4,92,73,53,30.39,30.29,6,1,6,0.00
2013-3-8,49.9,37.3,28.9,31.2,28.5,25.9,90,73,47,30.39,30.19,7,1,7,0.00
2013-3-9,69.8,54.2,42.9,38.6,34.1,29.4,65,48,30,30.19,29.88,14,4,14,0.00
2013-3-10,66.9,57.0,49.4,54.4,46.6,37.0,96,71,47,29.89,29.65,23,7,23,0.49
2013-3-11,51.1,41.0,36.4,50.0,36.6,29.0,96,84,74,29.98,29.69,20,9,20,0.00
2013-3-12,48.1,35.6,29.7,30.2,28.3,26.2,91,77,43,30.16,29.98,15,3,15,0.00
2013-3-13,45.7,37.9,31.9,27.7,22.4,19.3,68,54,37,30.39,30.16,22,6,22,0.00
2013-3-14,50.6,38.7,27.4,31.3,25.4,20.0,76,60,45,30.39,30.09,10,2,10,0.00
2013-3-15,74.7,57.6,40.1,53.1,43.7,27.8,81,61,45,30.09,29.73,22,7,22,0.00
2013-3-16,70.1,57.8,43.7,55.2,46.8,38.1,81,67,54,29.93,29.70,23,10,23,0.00
2013-3-17,43.7,40.7,37.5,42.0,38.4,35.5,96,92,81,30.03,29.68,12,4,12,0.48
2013-3-18,51.7,44.8,38.5,47.7,41.8,35.8,97,90,68,29.96,29.61,18,5,18,0.77
2013-3-19,52.3,43.0,32.8,38.4,24.5,14.9,92,52,23,30.17,29.97,12,2,12,0.00
2013-3-20,46.4,38.0,29.0,32.4,25.0,16.0,81,60,42,30.20,30.06,18,5,18,0.00
2013-3-21,41.8,32.7,21.5,25.0,17.5,13.8,81,55,36,30.10,29.95,12,2,12,0.00
2013-3-22,43.2,38.4,34.4,28.6,25.5,22.3,67,60,53,30.00,29.93,8,2,8,0.00
2013-3-23,53.9,46.1,39.5,42.2,33.6,27.8,88,62,50,29.96,29.70,12,2,12,0.01
2013-3-24,45.9,39.5,33.4,41.7,36.9,29.5,95,90,82,29.76,29.41,30,9,30,0.14
2013-3-25,38.3,34.3,31.8,30.9,28.4,25.8,93,79,64,30.16,29.77,26,13,26,0.00
2013-3-26,47.8,36.0,29.5,34.6,28.2,24.4,92,75,49,30.33,30.16,13,4,13,0.08
2013-3-27,51.3,39.6,26.8,32.3,27.5,22.8,88,64,40,30.39,30.27,13,2,13,0.00
2013-3-28,60.4,49.4,40.0,39.9,34.4,29.5,74,57,39,30.34,30.21,7,2,7,0.01
2013-3-29,57.7,50.3,45.2,51.8,45.5,37.6,95,84,61,30.23,30.13,10,2,10,0.66
2013-3-30,55.1,48.7,43.7,49.4,46.7,41.6,97,93,78,30.16,29.88,9,2,9,0.42
2013-3-31,66.1,54.8,49.4,55.6,50.2,47.1,98,86,54,29.93,29.83,12,3,12,0.00
2013-4-1,55.7,48.6,39.8,48.6,36.3,27.6,92,63,42,30.16,29.86,12,3,12,0.00
2013-4-2,45.9,41.1,35.7,29.3,24.3,18.9,70,52,35,30.29,30.15,7,1,7,0.00
2013-4-3,52.8,44.1,33.3,27.5,24.5,20.1,67,47,32,30.32,30.16,10,2,10,0.00
2013-4-4,56.2,47.7,41.5,39.6,30.3,24.3,84,52,38,30.16,29.97,7,1,7,0.00
2013-4-5,71.3,54.3,36.2,40.8,37.5,31.9,95,59,27,30.11,30.00,15,2,15,0.00
2013-4-6,75.5,62.1,49.6,45.4,41.1,37.6,65,48,30,30.04,29.82,18,5,18,0.00
2013-4-7,73.7,65.9,60.6,58.8,53.0,44.3,78,64,51,29.93,29.85,21,7,21,0.00
2013-4-8,76.3,66.7,59.6,60.7,56.1,51.3,79,69,54,29.88,29.79,22,6,22,0.00
2013-4-9,79.9,71.5,62.6,65.9,61.9,55.3,81,72,61,29.95,29.80,15,5,15,0.00
2013-4-10,83.3,75.4,63.9,69.6,65.3,61.3,94,72,57,29.86,29.62,25,6,25,0.66
2013-4-11,65.4,54.5,44.4,64.2,52.6,36.8,97,94,74,29.74,29.54,21,6,21,0.97
2013-4-12,56.4,44.5,37.5,44.3,37.9,34.3,91,78,59,29.84,29.73,24,6,24,0.00
2013-4-14,75.8,69.4,60.7,55.9,50.9,47.0,71,53,39,29.78,29.70,17,7,17,0.00
2013-4-15,80.6,69.0,59.4,64.3,57.9,51.1,82,69,51,29.88,29.76,14,4,14,0.00
2013-4-16,87.0,72.9,63.4,71.5,65.5,59.6,92,79,56,30.00,29.83,18,4,18,0.00
2013-4-17,84.1,72.8,58.9,73.8,65.7,56.9,95,79,62,30.02,29.76,17,3,17,0.02
2013-4-18,78.5,69.6,44.2,67.3,61.9,42.6,95,78,57,29.77,29.56,24,8,24,1.55
2013-4-19,53.4,45.0,41.2,42.4,35.5,31.6,94,70,51,30.06,29.70,23,9,23,0.05
2013-4-20,62.9,49.1,34.4,41.6,35.9,31.8,95,64,36,30.28,30.06,12,1,12,0.00
2013-4-21,65.4,53.7,41.3,41.4,36.0,33.0,73,53,32,30.37,30.20,5,1,5,0.00
2013-4-22,74.9,60.4,43.4,51.6,43.8,34.7,78,56,36,30.22,29.98,13,2,13,0.00
2013-4-23,73.7,64.4,49.6,61.5,54.7,46.6,90,71,59,30.01,29.79,20,4,20,0.08
2013-4-24,51.4,44.8,39.1,46.4,39.8,36.2,94,83,59,30.25,29.87,22,4,22,0.21
2013-4-25,68.3,51.6,36.3,45.7,40.6,34.3,94,70,36,30.34,30.23,13,2,13,0.00
2013-4-26,51.9,50.8,49.2,49.5,46.0,41.0,95,84,69,30.39,30.21,10,1,10,0.46
2013-4-27,60.5,54.8,49.7,59.5,53.8,48.6,97,96,95,30.26,29.86,6,1,6,0.50
2013-4-28,61.3,56.3,53.2,57.4,54.2,52.3,97,93,82,29.92,29.85,13,4,13,0.01
2013-4-29,76.5,62.1,48.9,62.5,55.4,47.8,98,81,56,29.97,29.83,12,2,12,0.00
2013-4-30,83.8,70.0,57.1,63.6,57.3,53.4,88,67,41,29.92,29.84,10,2,10,0.00
2013-5-1,83.2,69.8,58.0,70.4,60.6,52.5,91,74,50,30.03,29.92,10,1,10,0.05
2013-5-2,74.0,66.3,60.0,63.2,59.4,55.6,94,79,61,30.09,29.97,7,1,7,0.10
2013-5-3,68.5,55.7,41.8,62.6,53.6,40.7,97,93,75,29.97,29.74,16,4,16,1.54
2013-5-4,52.8,45.3,38.7,42.7,41.0,37.7,97,86,65,29.94,29.83,12,2,12,0.17
2013-5-5,59.0,50.6,42.6,54.0,48.1,40.7,96,91,80,29.92,29.80,10,2,10,0.02
2013-5-6,63.7,57.5,53.2,58.0,54.6,51.0,95,90,80,29.89,29.79,10,2,10,0.00
2013-5-7,73.1,62.5,53.0,61.7,57.4,51.8,97,84,63,29.97,29.88,7,1,7,0.00
2013-5-8,83.4,69.7,57.4,62.7,58.6,54.2,96,71,38,30.01,29.92,13,2,13,0.00
2013-5-9,80.9,72.1,63.1,66.2,61.2,58.1,86,69,50,29.98,29.85,20,5,20,0.00
2013-5-10,77.1,68.0,60.9,70.3,63.3,55.3,97,86,67,29.93,29.78,17,4,17,0.44
2013-5-11,76.2,62.5,54.4,56.4,51.5,37.2,92,70,42,30.08,29.91,15,3,15,0.00
2013-5-12,67.5,55.3,44.4,43.5,36.6,28.3,88,53,25,30.18,30.08,13,3,13,0.00
2013-5-13,74.2,58.1,39.8,47.2,40.9,33.1,93,59,27,30.23,30.07,12,2,12,0.00
2013-5-14,87.6,69.3,56.4,63.3,55.2,43.2,81,63,40,30.07,29.88,17,6,17,0.00
2013-5-15,85.7,75.3,65.9,65.7,59.1,55.1,71,58,43,29.99,29.85,18,7,18,0.00
2013-5-16,85.2,73.7,66.2,65.6,62.2,58.1,87,68,48,29.93,29.84,13,3,13,0.00
2013-5-17,74.8,68.2,63.2,67.5,64.5,61.4,95,88,77,29.93,29.86,10,1,10,0.09
2013-5-18,87.0,73.9,64.2,70.2,66.3,62.7,96,79,50,29.95,29.85,9,1,9,0.00
2013-5-19,89.0,79.4,70.6,75.6,70.6,67.1,97,76,54,29.87,29.76,15,3,15,0.00
2013-5-20,89.9,79.9,71.1,72.8,69.8,67.2,92,73,49,29.88,29.74,18,5,18,0.00
2013-5-21,77.8,69.4,65.0,71.0,66.2,63.3,96,90,74,29.87,29.71,40,4,40,0.80
2013-5-22,80.0,70.0,62.9,67.1,63.7,61.6,97,82,58,29.80,29.67,20,6,20,0.05
2013-5-23,75.8,66.6,57.4,63.5,57.6,51.0,93,74,54,30.12,29.81,18,5,18,0.00
2013-5-24,72.3,59.0,47.3,51.0,46.5,42.8,91,66,37,30.33,30.12,8,1,8,0.00
2013-5-25,78.3,64.1,48.4,57.1,51.5,45.9,94,67,38,30.30,30.10,6,1,6,0.00
2013-5-26,86.0,71.5,57.4,63.4,59.0,53.8,91,67,40,30.15,30.01,9,1,9,0.00
2013-5-27,86.5,75.0,63.6,70.3,62.9,57.1,82,67,51,30.02,29.85,18,3,18,0.00
2013-5-28,87.9,78.1,69.7,71.3,66.1,60.1,86,68,51,29.95,29.86,20,4,20,0.00
2013-5-29,89.3,78.3,65.6,69.7,64.4,59.1,81,64,45,29.99,29.85,17,3,17,0.00
2013-5-30,86.5,78.4,72.9,72.0,68.8,64.2,83,73,58,29.94,29.83,17,3,17,0.01
2013-5-31,82.0,75.1,68.5,74.5,70.8,66.7,96,87,73,29.92,29.76,12,3,12,0.43
2013-6-1,77.4,68.2,64.5,72.5,66.1,62.4,98,93,72,29.92,29.71,18,3,18,2.73
2013-6-2,77.2,69.5,63.8,66.4,62.9,60.0,96,81,61,29.94,29.85,13,3,13,0.00
2013-6-3,76.3,66.1,58.4,60.8,58.1,55.6,95,77,51,30.01,29.91,9,1,9,0.00
2013-6-4,81.9,68.8,55.4,66.1,59.6,52.6,93,74,50,30.02,29.91,6,0,6,0.00
2013-6-5,86.1,74.9,63.3,68.7,64.4,60.6,92,72,46,29.93,29.75,8,0,8,0.14
2013-6-6,83.0,73.7,66.8,68.6,65.5,63.1,97,78,54,29.78,29.70,10,2,10,0.07
2013-6-7,81.5,71.9,63.7,65.0,60.8,57.6,87,69,49,29.84,29.74,12,3,12,0.00
2013-6-8,83.7,70.8,58.3,66.0,60.6,54.3,96,73,44,29.93,29.83,10,1,10,0.00
2013-6-9,76.5,70.5,63.9,72.5,65.6,58.6,96,85,71,29.93,29.75,10,1,10,0.20
2013-6-10,86.7,74.0,66.2,71.1,67.1,64.0,98,81,49,29.87,29.76,16,5,16,0.02
2013-6-11,95.3,80.1,63.8,78.9,70.8,62.1,97,75,54,29.94,29.84,10,2,10,0.00
2013-6-12,94.8,85.8,76.2,78.4,73.9,71.1,87,69,51,29.94,29.76,20,7,20,0.00
2013-6-13,83.4,78.4,66.2,73.3,68.4,62.7,89,72,56,29.90,29.75,20,7,20,0.00
2013-6-14,82.7,72.0,59.3,65.0,61.2,57.0,95,71,47,30.02,29.89,8,1,8,0.00
2013-6-15,87.9,75.3,62.0,70.3,64.9,59.6,94,73,48,30.05,29.91,9,1,9,0.00
2013-6-16,87.8,77.4,69.1,75.5,70.3,65.4,93,80,61,29.96,29.87,8,1,8,0.00
2013-6-17,89.5,73.5,66.8,76.3,70.0,65.9,97,90,62,29.89,29.83,16,1,16,1.15
2013-6-18,87.7,74.6,65.2,74.0,68.2,64.3,97,82,56,29.94,29.78,28,2,28,0.27
2013-6-19,88.5,75.2,63.9,74.7,68.7,62.7,97,82,50,29.99,29.90,8,0,8,0.29
2013-6-20,92.0,79.5,67.3,75.8,70.7,65.5,97,76,48,30.07,29.99,7,1,7,0.00
2013-6-21,91.1,81.0,71.1,76.1,71.7,67.8,90,75,55,30.10,30.00,12,2,12,0.00
2013-6-22,90.6,79.9,68.5,75.8,70.5,64.5,92,75,53,30.08,29.96,20,2,20,0.02
2013-6-23,88.6,77.6,68.4,75.1,70.1,65.3,93,79,59,30.04,29.92,10,1,10,0.01
2013-6-24,93.4,79.9,71.5,78.2,73.0,67.8,93,81,55,30.06,29.94,14,2,14,0.00
2013-6-25,91.4,82.6,75.3,78.3,74.4,70.9,91,77,63,29.97,29.81,9,2,9,0.00
2013-6-26,91.7,81.7,73.9,78.4,74.0,69.7,93,78,60,29.88,29.68,21,5,21,0.10
2013-6-27,95.2,83.4,74.1,79.4,73.9,67.7,97,76,43,29.81,29.73,12,2,12,0.01
2013-6-28,92.0,80.8,70.8,77.1,68.6,58.0,95,69,41,29.79,29.62,15,3,15,0.00
2013-6-29,87.5,74.8,65.2,67.9,63.2,58.8,88,69,45,29.66,29.57,20,5,20,0.00
2013-6-30,79.0,68.5,61.6,68.6,64.4,59.3,96,88,65,29.79,29.64,12,2,12,0.15
2013-7-1,71.0,67.0,64.3,67.3,64.9,62.8,96,93,81,29.86,29.75,13,2,13,0.08
2013-7-2,75.3,67.6,64.1,68.0,64.2,61.0,97,89,74,29.99,29.82,14,5,14,0.00
2013-7-3,84.3,70.6,64.5,68.7,64.3,61.9,94,82,54,30.06,29.97,8,1,8,0.00
2013-7-4,82.9,72.6,62.2,71.1,66.3,60.6,97,82,58,30.03,29.93,6,0,6,0.00
2013-7-5,83.5,74.6,65.4,71.4,68.2,63.7,97,82,62,30.03,29.94,5,0,5,0.00
2013-7-6,87.8,75.5,66.9,74.0,69.1,61.8,95,82,56,30.02,29.90,13,1,13,0.00
2013-7-7,90.2,81.5,63.8,76.9,71.6,61.6,93,73,54,30.03,29.97,6,1,6,0.00
2013-7-8,92.1,80.9,71.1,77.9,72.9,69.1,96,78,50,30.08,29.98,7,1,7,0.00
2013-7-9,93.1,81.3,73.6,80.6,74.9,71.6,95,82,61,30.03,29.91,8,2,8,0.00
2013-7-10,91.3,82.8,75.2,78.6,74.9,72.0,91,78,54,29.94,29.83,12,2,12,0.00
2013-7-11,81.8,75.2,73.2,74.7,72.5,71.3,96,92,76,29.92,29.86,4,0,4,0.00
2013-7-12,82.7,74.5,62.8,64.4,61.1,57.5,89,65,45,30.02,29.95,4,1,4,0.00
2013-7-13,83.7,72.5,59.3,65.5,61.8,57.1,95,72,47,30.00,29.93,4,0,4,0.00
2013-7-14,87.6,74.4,65.0,76.4,70.0,61.4,97,87,62,30.07,29.96,9,1,9,0.41
2013-7-15,87.8,79.3,72.3,78.7,74.0,70.6,97,85,67,30.17,30.06,7,1,7,0.01
2013-7-16,92.6,80.5,70.2,79.1,73.5,68.8,97,81,57,30.24,30.16,5,0,5,0.00
2013-7-17,94.7,82.4,70.8,80.1,74.3,69.2,97,79,55,30.26,30.11,5,0,5,0.00
2013-7-18,91.6,80.6,73.5,78.1,74.6,71.7,97,83,60,30.15,30.03,4,0,4,0.00
2013-7-19,90.9,81.9,70.1,78.9,74.4,68.9,98,79,59,30.01,29.86,10,2,10,0.00
2013-7-20,91.9,80.8,72.5,79.3,74.3,69.2,96,82,59,29.90,29.76,12,2,12,0.01
2013-7-21,89.7,75.9,69.5,79.9,72.1,67.8,96,89,63,29.89,29.80,10,1,10,0.15
2013-7-22,89.6,78.3,71.1,79.6,74.6,70.2,98,89,68,29.84,29.75,9,3,9,0.72
2013-7-23,91.9,79.2,72.2,78.4,73.6,70.1,97,84,61,29.85,29.71,20,5,20,0.09
2013-7-24,82.8,73.7,66.2,70.4,66.3,61.3,97,79,56,29.94,29.79,13,1,13,0.01
2013-7-25,81.0,70.2,60.5,66.8,61.6,58.0,93,76,49,30.03,29.93,7,0,7,0.00
2013-7-26,83.2,70.6,58.3,70.3,64.7,56.6,97,83,55,30.02,29.91,8,1,8,0.01
2013-7-27,82.3,73.0,64.8,72.1,66.3,57.1,97,81,58,29.95,29.84,9,2,10,0.01
2013-7-28,80.8,67.4,53.3,65.0,58.5,51.3,96,75,48,30.02,29.93,7,1,7,0.00
2013-7-29,78.8,69.3,60.0,69.7,63.4,57.9,96,82,60,30.12,30.01,7,0,7,0.00
2013-7-30,73.5,69.9,66.3,72.3,67.5,62.6,97,92,81,30.10,29.97,8,1,8,0.28
2013-7-31,85.5,76.2,69.8,78.5,72.7,69.0,99,90,68,29.98,29.89,6,1,6,0.00
2013-8-1,86.5,75.5,65.9,72.7,68.4,63.8,97,80,53,30.01,29.93,7,1,8,0.00
2013-8-2,86.4,74.0,62.6,73.3,68.1,60.8,97,83,58,29.98,29.89,7,1,7,0.00
2013-8-3,85.3,76.1,70.1,76.9,72.3,68.1,96,89,74,30.01,29.86,9,1,9,0.02
2013-8-4,80.7,74.3,68.1,72.3,66.3,63.5,96,78,57,30.09,30.00,2,0,3,0.00
2013-8-5,72.9,69.3,65.4,69.1,66.0,63.0,96,89,79,30.03,29.87,5,0,4,0.30
2013-8-6,83.9,75.3,70.4,78.0,72.6,69.2,98,92,75,29.91,29.82,7,0,7,0.02
2013-8-7,82.9,74.7,70.0,77.5,72.5,68.7,98,93,80,29.91,29.80,12,1,12,0.23
2013-8-8,83.2,75.2,70.3,78.5,73.5,69.4,99,95,77,29.93,29.82,17,0,17,0.06
2013-8-9,81.5,76.0,73.2,76.6,73.9,72.2,99,93,81,29.98,29.85,4,0,4,0.03
2013-8-10,80.3,74.9,71.6,76.1,73.4,71.0,99,95,85,30.06,29.96,5,0,5,0.57
2013-8-11,88.2,78.2,70.6,78.0,73.6,69.9,98,87,65,30.07,29.98,7,0,7,0.00
2013-8-12,85.9,76.5,72.6,80.4,74.5,71.4,99,94,81,30.01,29.84,8,2,8,0.59
2013-8-13,82.3,75.6,67.1,74.7,69.8,64.5,99,83,61,30.00,29.86,7,1,7,0.00
2013-8-14,73.1,64.4,57.6,64.6,56.8,53.3,93,78,51,30.09,29.99,5,1,5,0.00
2013-8-15,75.7,65.4,55.4,61.5,56.9,52.8,93,76,51,30.08,29.99,4,0,4,0.00
2013-8-16,77.8,67.8,58.5,65.3,60.8,56.0,93,79,61,30.05,30.00,5,0,5,0.00
2013-8-17,78.2,67.7,64.7,70.3,64.4,61.1,97,89,74,30.10,30.01,8,1,8,0.67
2013-8-18,79.0,72.1,65.3,72.8,68.7,63.8,98,89,74,30.10,30.01,5,0,5,0.00
2013-8-19,86.5,72.9,62.8,73.2,67.7,61.9,99,85,59,30.07,29.97,5,0,5,0.00
2013-8-20,89.3,75.3,64.3,76.3,70.3,63.4,99,86,60,30.06,29.97,5,0,5,0.00
2013-8-21,89.3,77.7,67.3,77.6,72.1,66.4,99,84,59,30.09,29.99,7,1,7,0.00
2013-8-22,93.2,80.0,68.4,79.7,73.7,67.2,98,83,54,30.06,29.95,7,1,7,0.00
2013-8-23,89.3,78.6,70.1,78.7,73.7,68.9,98,86,67,30.02,29.94,7,0,7,0.00
2013-8-24,88.0,78.1,69.2,76.6,71.4,67.7,97,82,57,30.13,30.02,4,0,4,0.00
2013-8-25,90.3,78.3,67.4,79.5,72.6,65.2,96,83,64,30.20,30.12,9,1,9,0.00
2013-8-26,89.7,79.4,71.5,78.5,73.8,69.8,96,84,65,30.19,30.05,10,2,10,0.00
2013-8-27,89.9,79.0,70.7,77.6,73.2,69.2,96,83,65,30.07,29.96,12,3,12,0.00
2013-8-28,94.7,81.1,71.4,78.2,72.8,69.2,94,78,49,30.00,29.93,10,3,10,0.00
2013-8-29,96.6,82.8,72.5,79.0,74.0,69.4,93,77,50,29.98,29.89,7,2,7,0.00
2013-8-30,97.0,83.8,72.6,80.4,75.2,70.5,95,77,51,29.93,29.80,7,2,8,0.00
2013-8-31,96.0,84.9,76.5,80.7,76.5,72.7,92,77,56,29.83,29.70,9,3,9,0.00
2013-9-1,83.1,77.8,71.7,76.6,73.4,68.9,97,87,78,29.82,29.70,16,4,16,0.74
2013-9-2,86.8,77.2,68.6,78.2,71.4,64.8,98,83,58,29.87,29.77,12,1,12,0.00
2013-9-3,85.5,72.7,62.6,69.1,64.6,60.8,96,78,49,30.00,29.86,7,1,7,0.00
2013-9-4,83.9,71.1,59.5,68.4,63.1,57.9,97,78,49,30.10,30.00,6,0,6,0.00
2013-9-5,83.3,70.5,58.1,68.4,63.1,56.4,98,80,53,30.14,30.06,4,0,4,0.00
2013-9-6,87.9,75.1,64.3,71.7,67.0,62.8,97,78,52,30.12,30.00,4,0,4,0.00
2013-9-7,90.8,76.4,63.5,74.8,69.1,61.9,97,80,53,30.02,29.89,10,1,10,0.00
2013-9-8,89.7,78.0,66.6,76.8,71.7,64.7,97,82,60,29.93,29.84,7,0,7,0.00
2013-9-9,93.9,82.7,73.2,78.1,74.7,71.4,94,78,54,29.95,29.87,9,1,9,0.01
2013-9-10,93.4,81.5,74.8,78.9,74.1,68.7,91,79,52,30.07,29.95,4,0,5,0.00
2013-9-11,94.0,79.4,70.5,78.1,72.5,68.1,97,81,57,30.10,29.99,10,1,10,0.00
2013-9-12,89.9,78.4,66.7,76.1,71.5,63.3,94,80,58,30.00,29.88,10,2,10,0.00
2013-9-13,76.0,67.2,56.0,63.5,56.3,51.5,86,70,46,30.02,29.94,10,1,10,0.00
2013-9-14,73.5,61.0,49.9,54.7,50.6,47.5,94,72,42,30.10,30.00,8,0,8,0.00
2013-9-15,83.3,65.7,51.0,60.9,55.7,48.4,96,73,44,30.07,30.00,10,1,12,0.00
2013-9-16,74.2,67.6,61.4,65.9,62.3,57.8,91,83,72,30.15,30.03,6,1,6,0.00
2013-9-17,82.7,70.8,61.1,68.2,63.9,59.4,95,80,59,30.15,30.02,5,0,5,0.00
2013-9-18,89.0,76.4,66.7,73.6,69.6,63.4,92,80,55,30.06,29.94,9,2,9,0.00
2013-9-19,88.1,77.7,71.2,76.0,71.6,68.7,92,82,65,30.02,29.88,10,2,10,0.00
2013-9-20,74.6,72.0,67.7,73.3,69.2,66.5,97,91,81,29.90,29.77,10,2,10,0.57
2013-9-21,73.7,64.2,54.2,66.3,55.8,51.6,97,77,48,29.88,29.78,13,2,13,0.03
2013-9-22,74.9,62.5,51.1,57.1,53.1,49.1,95,74,47,29.95,29.86,4,0,4,0.00
2013-9-23,78.0,64.3,50.4,59.2,55.0,47.9,94,74,48,29.97,29.87,5,0,5,0.00
2013-9-24,76.7,64.9,58.5,69.4,61.9,56.2,97,90,76,29.90,29.76,8,1,8,0.10
2013-9-25,80.1,68.6,60.5,71.4,65.2,59.4,98,90,66,29.82,29.74,4,0,4,0.00
2013-9-26,82.7,70.4,61.6,70.8,64.4,60.4,98,83,55,29.96,29.81,4,0,4,0.00
2013-9-27,81.4,69.5,58.9,66.7,60.4,56.4,97,76,44,30.06,29.96,5,0,5,0.00
2013-9-28,82.4,71.7,63.3,64.5,61.3,59.0,90,72,46,30.07,29.96,8,1,9,0.00
2013-9-29,69.0,65.1,63.3,64.3,62.3,59.6,97,91,73,29.99,29.93,6,0,6,0.27
2013-9-30,68.2,65.9,64.1,66.2,64.7,63.2,98,96,92,29.95,29.90,6,0,6,0.00
2013-10-1,74.3,68.6,64.0,70.6,67.1,62.9,98,95,88,30.02,29.92,7,1,7,0.12
2013-10-2,80.3,71.9,68.1,74.9,70.2,67.5,99,95,79,30.03,29.96,14,1,14,0.02
2013-10-3,81.4,71.3,68.3,69.8,67.8,66.5,97,89,66,29.98,29.89,6,0,6,0.00
2013-10-4,86.2,75.2,68.4,75.3,70.8,66.9,96,87,67,29.99,29.90,12,1,12,0.00
2013-10-5,81.4,73.1,67.7,75.6,71.3,67.1,98,94,79,29.95,29.78,15,1,16,2.74
2013-10-6,68.6,60.0,50.4,67.3,53.7,45.8,98,81,54,29.92,29.78,22,5,22,0.26
2013-10-7,67.5,55.6,47.6,53.2,48.8,45.3,94,79,56,30.10,29.88,8,1,8,0.00
2013-10-8,70.0,57.7,47.0,53.3,48.7,45.6,97,75,44,30.17,30.07,4,0,7,0.00
2013-10-9,78.2,62.4,48.6,66.8,57.5,46.7,96,85,64,30.13,30.04,7,0,7,0.00
2013-10-10,78.7,66.4,59.1,67.7,62.0,57.9,99,87,60,30.11,29.97,6,0,6,0.00
2013-10-11,80.9,67.4,58.6,66.6,60.9,57.2,97,82,51,30.01,29.91,8,1,8,0.00
2013-10-12,72.4,65.4,60.8,69.3,62.8,58.2,97,91,84,30.10,29.94,8,0,8,0.17
2013-10-13,74.4,63.4,53.5,62.0,53.0,47.3,97,72,40,30.26,30.10,6,0,6,0.00
2013-10-14,73.3,61.7,50.7,60.9,54.4,45.1,87,77,62,30.24,30.03,0,0,1,0.00
2013-10-15,71.0,65.9,63.2,66.4,63.7,60.4,97,93,83,30.03,29.88,10,1,10,0.02
2013-10-16,66.7,57.9,49.2,65.8,53.2,47.5,97,85,67,29.99,29.87,12,1,12,0.00
2013-10-17,65.3,53.9,48.8,53.2,49.6,46.9,96,86,60,29.98,29.92,12,1,12,0.34
2013-10-18,68.8,55.6,46.2,54.7,49.5,44.8,98,82,50,30.03,29.90,9,1,9,0.01
2013-10-19,60.2,49.8,43.4,50.7,44.7,40.3,95,84,50,30.01,29.86,13,2,13,0.10
2013-10-20,64.9,50.7,40.7,48.2,43.9,39.1,96,80,50,30.04,29.94,13,2,13,0.01
2013-10-21,68.0,54.5,43.9,53.6,48.1,42.0,95,80,58,30.01,29.92,13,2,13,0.01
2013-10-22,61.8,49.3,35.9,47.6,41.4,34.1,97,76,48,30.03,29.81,16,1,20,0.03
2013-10-23,55.2,46.2,41.6,45.5,38.3,34.5,93,75,47,30.11,29.88,15,3,15,0.00
2013-10-24,51.9,44.4,33.5,41.2,35.6,28.3,92,73,41,30.38,30.08,17,2,17,0.00
2013-10-25,51.9,38.2,29.3,33.9,29.7,26.5,93,74,39,30.51,30.27,5,0,5,0.00
2013-10-26,59.4,47.1,33.2,47.2,39.2,29.5,90,75,56,30.27,30.03,17,3,17,0.00
2013-10-27,66.0,51.8,37.9,49.3,41.9,34.7,92,71,41,30.08,29.99,5,0,5,0.00
2013-10-28,71.1,55.5,43.1,54.6,48.8,41.2,96,80,54,30.19,30.01,8,0,8,0.00
2013-10-29,62.2,56.7,49.6,61.5,55.3,47.9,98,95,90,30.22,30.04,7,0,7,0.29
2013-10-30,75.0,68.1,62.2,67.2,64.2,61.6,98,88,74,30.08,29.89,17,3,17,0.05
2013-10-31,68.6,64.8,56.0,66.3,62.7,54.8,97,93,84,29.89,29.42,27,6,27,0.78
2013-11-1,67.6,56.5,49.9,54.8,49.6,43.7,97,80,49,29.82,29.64,20,5,20,0.00
2013-11-2,57.6,49.4,39.8,46.9,42.6,37.6,92,78,57,30.16,29.81,18,3,18,0.00
2013-11-3,58.4,45.8,34.1,46.9,37.3,32.8,98,75,43,30.29,30.15,5,0,5,0.00
2013-11-4,59.6,51.1,44.0,49.4,44.2,38.5,95,78,57,30.25,30.16,12,1,12,0.01
2013-11-5,63.7,58.1,50.6,53.6,48.4,45.0,93,71,59,30.28,30.08,10,2,10,0.00
2013-11-6,60.0,53.8,41.5,57.4,49.2,39.1,97,85,63,30.21,29.97,16,3,16,0.01
2013-11-7,55.0,43.2,36.0,39.0,36.2,32.1,94,78,44,30.37,30.21,9,1,9,0.00
2013-11-8,60.1,45.9,31.9,45.3,35.2,30.4,97,70,37,30.36,30.17,7,0,6,0.00
2013-11-9,63.4,51.8,42.6,47.4,42.3,35.6,84,71,52,30.20,30.10,20,4,20,0.00
2013-11-10,60.5,48.5,36.9,45.5,36.6,29.3,95,67,32,30.35,30.20,6,0,6,0.00
2013-11-11,64.5,51.0,36.7,46.3,37.3,31.4,84,61,38,30.28,30.11,13,2,13,0.00
2013-11-12,44.5,35.1,26.9,39.4,25.7,20.7,87,69,48,30.67,30.28,12,3,12,0.00
2013-11-13,47.4,33.0,20.9,26.7,22.3,18.3,93,67,39,30.69,30.38,7,1,7,0.00
2013-11-14,56.4,41.9,28.7,27.4,24.0,21.8,75,51,28,30.38,30.10,13,2,13,0.00
2013-11-15,52.4,48.0,43.3,49.5,38.3,24.0,94,70,41,30.11,29.98,6,0,6,0.00
2013-11-16,66.6,59.7,51.2,62.9,56.4,49.5,95,89,80,29.99,29.72,10,3,13,0.00
2013-11-17,73.8,66.5,56.1,70.4,55.4,30.1,96,72,34,29.92,29.48,39,9,39,0.57
2013-11-18,60.4,51.0,38.3,43.3,33.7,26.7,79,54,33,30.24,29.92,20,3,20,0.00
2013-11-19,47.9,41.2,35.9,32.2,30.4,28.8,78,66,51,30.30,30.17,4,0,4,0.00
2013-11-20,56.9,45.1,32.1,38.8,34.2,28.1,89,67,47,30.18,30.06,8,1,8,0.00
2013-11-21,58.8,54.5,49.6,56.4,48.7,37.1,95,81,60,30.17,30.09,9,1,9,0.17
2013-11-22,58.1,47.8,40.0,57.0,45.8,36.4,97,93,86,30.40,30.12,14,3,14,0.11
2013-11-23,40.7,33.6,24.5,36.5,22.2,15.4,88,64,39,30.63,30.38,11,4,11,0.00
2013-11-24,32.1,28.9,22.0,18.2,14.9,12.3,70,56,44,30.70,30.43,5,1,5,0.00
2013-11-25,36.7,32.7,29.0,30.7,22.6,17.9,91,67,52,30.44,30.20,9,1,9,0.01
2013-11-26,40.4,35.6,28.3,31.8,28.5,16.5,94,76,60,30.12,29.97,22,3,22,0.03
2013-11-27,31.9,25.1,19.0,16.4,12.1,8.8,79,58,42,30.36,30.12,20,5,20,0.00
2013-11-28,44.7,33.3,19.4,29.0,22.2,12.6,83,65,47,30.45,30.30,17,3,17,0.00
2013-11-29,52.5,39.0,25.1,33.9,29.1,22.8,91,70,46,30.56,30.39,5,0,5,0.00
2013-11-30,56.9,45.5,34.2,34.1,28.9,25.0,74,54,31,30.39,30.15,15,3,15,0.00
2013-12-1,58.0,47.7,40.7,43.6,37.5,29.4,89,68,52,30.15,29.87,7,1,7,0.00
2013-12-2,61.3,50.8,41.3,50.3,45.0,37.5,92,81,66,29.87,29.67,5,0,5,0.00
2013-12-3,63.7,54.5,48.3,55.1,50.5,46.4,97,87,65,29.72,29.64,7,0,7,0.00
2013-12-4,73.4,64.6,53.5,62.6,59.7,52.1,96,85,67,29.74,29.59,14,4,14,0.00
2013-12-5,65.8,40.2,29.3,62.4,36.1,27.0,93,85,72,30.19,29.74,13,4,13,0.03
2013-12-6,29.6,23.8,20.1,27.9,21.8,17.0,94,92,88,30.49,30.12,12,2,12,0.00
2013-12-7,22.7,18.3,13.1,17.0,13.7,9.2,88,82,75,30.64,30.38,9,2,9,0.00
2013-12-8,32.0,27.5,20.7,30.7,25.5,16.9,95,92,85,30.38,30.02,12,2,12,0.00
2013-12-9,32.2,28.4,24.8,29.1,23.9,17.9,95,83,70,30.28,30.10,9,1,9,0.05
2013-12-10,32.5,26.1,19.8,25.8,21.7,17.3,92,83,73,30.37,30.22,17,4,17,0.11
2013-12-11,37.2,28.2,20.4,29.9,23.1,14.2,94,82,63,30.61,30.34,15,2,15,0.19
2013-12-12,30.9,21.2,9.9,20.5,12.0,5.2,85,69,36,30.62,30.35,8,1,8,0.03
2013-12-13,40.9,32.1,22.2,32.5,24.6,17.7,90,74,52,30.35,29.96,8,1,8,0.29
2013-12-14,37.3,35.3,31.4,36.3,33.3,28.5,96,92,89,30.09,29.77,16,4,16,1.08
2013-12-15,33.4,31.0,29.6,31.3,27.6,25.8,93,87,82,30.22,30.08,15,5,15,0.01
2013-12-16,49.0,41.1,33.6,41.2,36.1,31.5,92,82,69,30.11,30.01,14,6,14,0.09
2013-12-17,46.4,37.7,29.6,38.0,31.5,26.8,93,79,56,30.28,30.05,8,1,8,0.01
2013-12-18,50.9,40.7,27.2,35.3,28.6,22.8,87,64,39,30.31,30.04,7,1,9,0.00
2013-12-19,59.2,51.0,44.1,51.5,42.7,35.3,79,73,67,30.05,29.86,16,5,16,0.00
2013-12-20,65.8,62.1,56.4,61.7,58.9,53.2,95,89,86,29.87,29.74,16,5,16,0.14
2013-12-21,63.3,49.6,38.4,62.0,48.7,37.6,99,97,91,29.74,29.41,23,2,23,4.87
2013-12-22,46.4,40.5,34.3,45.9,38.8,30.8,98,94,84,30.20,29.61,15,6,15,0.29
2013-12-23,35.6,31.1,26.2,30.8,25.1,19.3,88,78,67,30.49,30.20,15,2,15,0.00
2013-12-24,26.8,21.2,14.6,19.4,13.4,8.4,83,72,54,30.62,30.40,15,2,15,0.00
2013-12-25,42.4,36.1,22.6,30.6,27.9,16.0,90,73,58,30.41,30.26,16,5,16,0.00
2013-12-26,46.1,34.9,26.2,33.7,28.9,24.4,96,80,55,30.42,30.31,9,1,9,0.00
2013-12-27,52.6,39.5,29.4,38.4,32.7,27.1,92,78,56,30.43,30.30,9,1,9,0.00
2013-12-28,48.5,41.5,33.6,38.3,33.9,30.1,89,75,53,30.31,29.93,6,0,6,0.01
2013-12-29,47.3,38.0,26.7,42.5,34.1,20.6,97,86,72,30.20,29.88,16,4,16,0.12
2013-12-30,30.9,24.8,19.4,21.0,17.0,13.9,81,72,56,30.30,30.19,9,1,9,0.00
2013-12-31,44.2,32.1,22.8,29.6,24.3,17.8,91,74,51,30.43,30.25,10,2,10,0.00
2014-1-1,49.0,38.8,28.8,36.8,31.6,26.0,90,76,55,30.25,29.91,9,1,9,0.02
2014-1-2,42.4,26.5,17.3,37.2,20.2,11.2,92,77,62,30.45,29.90,24,6,24,0.01